Wind_Speed
33 29 30 29 29 29 29 29 26 27 28 27 26 25 24 22 21 21 20 21 21 22 23 23 26 29 31 34 36 37 38 39 40 39 41 41 41 41 41 41 45 47 48 47 45 43 41 39 34
37 34 32 32 31 31 32 30 30 30 28 27 25 25 25 23 23 24 24 25 24 25 25 27 31 32 34 37 39 40 41 43 44 44 44 43 44 43 45 47 49 47 47 47 46 45 42 38 35
42 38 36 33 31 31 29 29 27 26 27 27 25 25 26 26 25 25 27 27 28 29 30 32 34 35 37 39 40 42 44 46 46 46 46 46 48 47 50 50 50 47 49 49 49 47 42 37 38
45 42 39 36 34 31 30 29 28 27 27 27 27 26 26 26 25 27 28 30 31 32 33 36 37 38 40 40 43 45 47 48 49 49 49 49 50 51 53 53 50 51 50 51 49 47 42 41 39
49 47 44 42 37 37 33 31 31 30 30 29 28 27 28 28 28 30 31 33 34 36 37 39 40 42 43 44 46 49 50 51 51 51 52 52 52 55 55 52 52 53 51 53 50 47 44 42 40
50 50 50 47 44 41 39 37 35 34 34 34 33 32 32 32 32 34 35 37 38 39 40 42 43 44 46 48 50 52 52 53 53 53 54 55 56 57 56 55 55 52 53 52 48 48 46 45 44
56 53 52 51 49 47 45 43 41 39 38 39 38 37 36 36 37 38 38 40 41 42 44 45 45 47 49 51 54 55 56 56 55 56 58 58 59 59 57 58 54 53 53 52 51 52 51 50 46
59 58 56 54 54 50 50 48 46 44 44 44 42 41 41 41 40 42 42 42 43 45 46 46 48 50 52 54 56 57 58 58 58 59 61 62 63 60 60 58 55 55 54 53 54 56 53 49 47
61 61 61 58 57 54 52 53 50 48 48 48 48 47 47 46 46 47 48 49 50 50 49 50 53 53 55 57 58 60 60 60 62 62 63 65 63 62 61 56 57 57 58 57 59 55 53 52 50
62 62 63 61 59 59 57 54 53 53 52 52 51 51 50 51 51 53 54 53 53 53 54 55 57 59 59 59 60 61 62 63 64 65 66 65 65 63 59 59 61 60 61 60 62 59 56 54 53
64 63 63 64 63 61 59 59 58 56 56 55 54 54 54 53 54 55 56 56 57 58 59 59 62 62 62 63 63 64 65 66 67 68 66 67 66 64 61 62 63 63 64 66 62 61 59 55 54
68 65 64 64 64 65 64 62 59 59 58 57 56 56 57 57 57 58 59 60 61 61 63 64 64 65 64 65 67 66 67 68 69 67 68 68 67 64 63 65 63 66 67 65 65 64 62 58 55
71 68 66 64 64 65 66 64 64 61 59 59 59 60 61 61 61 62 63 64 65 65 66 66 66 67 69 70 71 71 71 72 71 70 70 68 66 65 67 66 68 71 69 67 67 66 63 61 58
72 72 69 66 67 67 66 67 68 65 63 64 64 64 64 65 65 65 66 66 66 66 66 68 70 71 73 74 74 75 75 75 74 73 71 70 68 70 72 70 72 74 72 72 71 68 66 62 57
69 72 71 69 68 67 68 69 67 66 65 66 66 67 66 66 66 66 67 68 68 69 71 72 73 75 74 75 77 77 77 76 74 73 73 73 74 77 77 76 78 81 78 75 75 72 67 62 58
67 70 73 71 69 67 68 69 68 67 66 66 67 67 68 68 69 70 72 72 72 74 75 75 76 77 78 78 79 76 75 74 74 75 77 77 80 82 81 81 84 85 82 80 78 72 66 62 60
64 67 72 77 74 68 66 66 66 66 66 68 68 68 68 69 69 71 72 73 74 75 76 78 79 79 80 78 77 76 75 76 78 80 80 81 86 85 85 88 88 87 85 83 76 70 67 65 63
64 66 65 71 72 70 67 68 69 66 62 63 65 69 71 72 71 73 74 74 76 78 80 81 81 79 77 81 79 79 80 80 81 84 84 88 89 89 91 90 91 89 86 80 75 72 70 69 67
68 65 66 65 72 69 71 69 66 61 61 61 62 64 66 69 70 71 72 74 75 74 76 78 78 79 81 80 83 83 83 84 86 88 90 93 93 95 94 95 92 88 84 79 76 74 73 71 68
68 68 69 71 66 72 72 75 73 72 69 69 69 69 70 70 70 72 74 74 76 77 79 80 82 81 82 85 86 87 88 89 90 92 93 96 98 97 97 95 94 89 84 81 78 75 73 72 72
67 69 68 69 72 70 69 72 75 76 76 76 74 73 72 75 76 77 77 79 79 80 81 83 85 87 87 87 89 90 92 92 94 98 98 98 98 99 98 95 90 86 83 81 80 78 75 74 76
67 67 68 68 69 68 71 74 77 77 78 77 76 76 76 77 78 78 79 81 84 85 85 86 87 88 90 91 93 96 99 101 101 101 101 101 101 98 94 92 90 87 85 84 83 81 81 82 81
66 66 66 66 67 65 68 67 69 70 71 71 73 75 77 79 82 84 82 82 85 84 86 88 91 94 96 97 98 100 102 102 102 102 103 101 98 95 94 92 90 89 88 87 87 88 89 90 91
65 63 62 63 64 65 69 71 69 72 75 75 74 74 74 76 77 82 86 86 87 89 91 94 96 99 100 100 101 101 103 104 104 102 100 98 97 96 95 94 93 92 93 94 94 95 97 99 100
65 64 63 62 62 63 67 68 69 69 70 72 73 74 77 81 84 86 88 90 93 96 97 98 98 98 99 101 102 103 103 103 101 100 99 98 97 97 97 97 97 98 99 101 103 105 106 108 108
66 64 63 62 62 63 65 66 70 73 75 76 78 80 83 84 87 89 91 93 95 97 97 99 100 101 102 102 102 102 101 100 99 99 99 99 99 99 100 101 103 106 108 110 111 111 113 115 116
66 65 64 62 62 63 65 67 68 72 75 76 77 80 82 85 87 89 92 95 96 97 98 99 100 102 102 101 101 100 100 100 100 101 101 102 103 104 105 109 111 112 114 116 117 118 119 119 119
66 66 65 64 63 65 66 68 70 73 75 76 79 82 85 87 89 92 94 95 97 98 99 101 101 101 101 101 101 101 101 101 102 103 105 106 108 111 113 116 117 118 118 118 117 116 114 112 112
67 67 66 66 66 67 69 70 75 76 77 80 83 85 87 89 91 94 95 96 98 100 100 100 100 101 101 102 103 104 104 105 107 109 111 113 115 117 119 120 119 117 115 112 111 111 109 109 108
66 67 68 68 69 70 72 74 77 78 81 83 85 88 90 92 93 94 95 98 98 98 100 101 102 103 104 105 106 108 110 112 114 116 118 120 121 120 118 115 112 112 112 109 109 107 106 106 107
Wind_Direction
231 232 234 230 224 227 225 232 235 237 239 244 243 243 244 244 246 250 260 270 281 295 291 294 299 303 306 308 312 313 315 318 320 322 325 324 324 321 322 322 322 325 323 324 325 324 324 323 319
227 233 235 231 231 229 229 234 231 234 233 235 240 247 242 246 246 250 260 270 280 289 290 293 297 300 304 307 308 309 313 316 318 320 323 323 322 321 321 322 324 325 326 327 327 325 323 320 317
227 228 233 230 230 230 231 228 228 232 232 235 242 252 257 254 253 257 264 271 279 286 288 293 296 297 299 300 303 308 311 314 316 317 318 319 320 319 321 322 323 324 324 325 324 322 320 317 317
226 229 231 231 229 230 228 232 233 241 247 249 249 252 257 258 262 265 268 274 279 283 287 291 293 293 296 298 301 304 308 312 314 316 317 317 318 319 320 321 321 321 322 324 321 321 319 317 317
226 228 231 230 231 233 233 236 239 243 244 249 250 254 255 257 261 265 268 272 278 283 287 291 292 293 295 297 299 303 306 311 313 315 315 316 317 316 318 318 318 319 318 319 318 315 316 316 315
228 229 232 231 233 232 232 235 240 245 248 251 252 253 258 261 264 267 271 276 280 284 287 289 290 292 295 296 298 302 306 308 311 312 312 314 315 315 316 317 316 316 315 315 315 314 313 313 311
229 231 233 234 234 234 235 236 238 240 245 249 251 254 258 262 265 269 273 278 281 285 286 288 289 292 292 294 299 302 305 308 309 310 312 312 312 313 313 314 313 311 313 313 314 314 312 309 308
231 231 233 234 236 238 238 239 240 241 244 248 252 255 258 261 263 267 272 275 277 281 283 285 287 288 290 293 296 301 305 305 307 309 310 310 309 310 311 311 310 310 312 313 313 311 310 307 306
228 233 233 235 236 238 240 241 244 246 246 249 253 255 258 261 264 267 271 274 277 280 281 282 285 287 290 294 298 301 303 304 305 307 307 307 308 308 309 308 310 310 312 312 311 309 307 305 304
229 232 234 236 238 240 242 245 246 248 252 253 254 257 260 262 267 270 273 276 279 280 281 283 285 287 291 295 297 300 302 303 304 304 304 305 306 307 307 307 308 309 310 309 309 307 306 304 302
230 233 235 236 238 242 245 247 250 253 254 257 260 262 264 265 268 271 274 276 278 280 281 284 289 291 293 294 297 299 300 301 302 302 303 304 305 306 304 305 306 307 307 307 307 306 305 303 302
230 232 236 239 239 241 244 248 251 253 256 258 262 264 267 269 270 272 274 276 278 282 286 290 291 292 293 294 296 296 297 298 300 300 301 302 303 302 302 304 305 305 305 305 305 305 304 303 301
231 232 236 239 241 243 245 248 251 252 256 260 263 266 268 270 272 275 278 280 282 285 287 288 291 292 294 295 296 296 297 298 297 298 299 300 299 300 303 303 304 307 305 304 304 304 303 301 299
231 233 235 238 241 243 246 249 250 251 255 259 262 265 269 272 274 276 279 281 283 285 286 288 290 291 293 294 295 296 297 297 298 298 300 298 298 301 303 301 304 307 305 304 305 304 302 299 296
234 234 237 240 242 244 246 249 251 253 256 259 262 265 268 272 274 277 278 279 281 284 286 288 289 290 291 292 293 294 295 295 297 299 298 298 300 303 303 303 304 307 305 304 304 303 300 296 292
234 235 236 239 242 246 248 251 252 253 256 259 262 264 267 269 272 275 277 280 282 284 285 286 287 288 290 292 293 294 294 296 296 297 297 298 299 302 301 302 303 305 304 304 303 300 296 293 290
233 237 239 240 243 245 247 253 256 257 259 261 264 267 268 270 272 275 277 279 281 283 284 285 287 289 291 292 293 293 295 295 295 295 296 296 299 300 300 301 303 303 303 302 299 295 292 289 287
231 235 238 243 243 246 249 252 254 257 260 261 263 267 269 272 275 275 277 279 281 282 284 286 288 290 290 291 293 294 294 294 294 294 294 295 297 297 298 300 301 301 301 298 295 292 290 289 287
228 230 235 242 243 244 245 248 251 254 259 263 265 267 271 274 277 278 279 281 283 284 285 287 288 288 290 291 292 292 293 294 293 292 292 293 295 296 298 300 300 299 298 295 292 291 290 288 284
229 230 235 240 246 248 251 253 255 255 258 264 265 268 270 271 273 276 278 280 282 285 285 286 287 287 289 290 291 291 292 291 290 290 291 294 295 297 298 298 298 297 295 294 292 290 288 286 284
230 231 234 239 243 248 251 256 258 260 262 264 267 270 270 273 277 279 279 281 283 284 285 286 287 288 289 289 288 288 288 289 290 292 292 294 296 295 296 297 296 295 293 291 290 289 287 285 283
232 233 234 238 245 250 253 254 258 262 265 267 268 269 272 274 277 279 280 282 284 285 285 286 285 286 286 286 286 286 288 289 290 292 294 293 294 295 295 294 294 293 292 291 290 289 287 286 284
234 236 238 240 244 247 252 255 261 265 267 269 272 274 275 276 277 279 281 281 283 284 283 284 284 285 286 287 288 288 290 293 293 292 293 294 293 294 294 293 293 293 292 291 291 291 291 290 289
237 241 243 244 246 248 251 256 257 262 265 268 272 275 276 278 278 279 282 283 284 285 285 284 285 285 287 289 290 291 291 292 292 293 293 294 294 294 294 294 294 293 293 293 292 291 290 289 288
237 241 244 247 249 250 252 256 260 262 263 264 266 269 271 274 278 279 280 281 282 283 285 286 287 288 289 290 291 291 291 292 293 293 293 294 294 294 294 294 294 293 293 292 291 291 290 289 288
238 243 246 249 253 256 258 259 262 265 267 269 271 272 274 276 279 281 282 283 284 286 288 289 289 290 290 290 291 291 291 292 292 293 293 293 293 293 293 293 294 293 294 293 292 292 290 290 289
240 244 249 252 256 260 263 265 266 268 270 273 276 278 280 281 282 283 283 285 287 288 288 289 289 289 290 290 290 290 291 291 291 291 291 292 293 294 294 294 294 294 293 293 292 292 290 290 288
241 246 250 255 258 262 264 268 270 272 275 277 279 280 281 281 283 284 285 286 287 287 288 288 288 289 289 289 289 290 290 290 290 291 292 293 294 294 294 294 294 293 292 292 291 290 290 289 288
242 247 252 257 260 263 266 269 272 274 276 278 279 280 282 283 284 284 285 285 286 287 288 288 288 288 289 289 289 290 290 291 292 293 293 294 294 294 294 294 293 293 294 293 292 291 290 287 286
244 248 254 258 262 265 268 271 273 274 276 278 280 281 283 283 284 284 285 286 287 286 287 287 288 289 289 290 290 291 292 292 292 293 293 294 294 294 295 294 294 293 294 294 293 292 290 289 287
Height
10955 10956 10957 10958 10961 10962 10964 10966 10966 10966 10967 10966 10966 10967 10967 10968 10969 10970 10968 10968 10967 10967 10966 10965 10964 10962 10960 10957 10955 10952 10949 10947 10944 10942 10939 10936 10933 10930 10927 10924 10921 10916 10912 10909 10905 10901 10897 10893 10889
10949 10952 10953 10955 10957 10958 10960 10961 10961 10962 10962 10962 10962 10962 10963 10964 10965 10965 10965 10964 10964 10963 10962 10961 10960 10958 10955 10953 10950 10947 10945 10942 10938 10935 10933 10930 10927 10923 10921 10917 10914 10909 10905 10902 10899 10895 10891 10888 10884
10944 10946 10948 10951 10952 10954 10955 10955 10956 10957 10957 10957 10958 10958 10958 10960 10961 10960 10960 10959 10959 10958 10957 10956 10954 10952 10950 10948 10945 10942 10939 10937 10933 10930 10927 10924 10921 10917 10913 10910 10906 10903 10899 10895 10892 10888 10885 10881 10878
10938 10941 10943 10946 10947 10949 10950 10951 10952 10952 10952 10953 10954 10955 10955 10956 10956 10956 10955 10955 10954 10954 10952 10951 10949 10946 10944 10941 10939 10937 10934 10931 10927 10924 10921 10918 10914 10910 10906 10903 10899 10895 10892 10888 10885 10881 10878 10875 10872
10930 10933 10937 10940 10942 10944 10946 10947 10948 10949 10949 10950 10950 10950 10950 10951 10951 10951 10951 10950 10949 10948 10947 10945 10943 10940 10938 10935 10932 10930 10927 10924 10921 10918 10914 10911 10907 10903 10899 10896 10892 10888 10884 10880 10877 10874 10870 10867 10865
10923 10926 10930 10933 10936 10938 10940 10941 10943 10945 10944 10944 10945 10945 10945 10945 10945 10945 10944 10943 10943 10942 10940 10938 10936 10934 10931 10929 10925 10923 10920 10917 10914 10911 10907 10904 10900 10895 10892 10888 10884 10880 10876 10873 10869 10866 10863 10860 10857
10915 10918 10921 10925 10928 10932 10934 10934 10937 10938 10938 10937 10938 10940 10940 10940 10939 10938 10938 10936 10934 10935 10933 10931 10929 10926 10923 10920 10918 10915 10912 10908 10906 10902 10898 10895 10891 10887 10884 10879 10876 10872 10869 10865 10861 10858 10854 10851 10848
10907 10910 10913 10917 10921 10924 10926 10928 10929 10930 10931 10930 10931 10933 10933 10933 10932 10932 10932 10931 10929 10928 10927 10924 10922 10920 10916 10914 10910 10907 10905 10900 10897 10893 10889 10885 10881 10877 10874 10870 10866 10863 10860 10857 10853 10849 10845 10842 10839
10897 10902 10904 10908 10912 10916 10918 10920 10922 10922 10923 10923 10923 10924 10925 10925 10925 10924 10924 10923 10923 10920 10919 10917 10914 10912 10909 10905 10902 10899 10895 10892 10887 10884 10880 10876 10871 10867 10864 10860 10857 10853 10850 10846 10843 10840 10837 10833 10830
10888 10892 10895 10899 10903 10907 10909 10912 10913 10914 10915 10916 10915 10914 10916 10917 10916 10916 10915 10915 10913 10911 10910 10908 10906 10904 10901 10897 10893 10890 10885 10882 10878 10875 10871 10866 10862 10857 10852 10849 10846 10842 10839 10836 10832 10829 10826 10823 10820
10880 10883 10885 10890 10894 10898 10901 10903 10905 10906 10907 10908 10908 10906 10906 10907 10907 10906 10906 10905 10903 10901 10900 10899 10897 10893 10890 10887 10883 10881 10876 10872 10867 10863 10859 10855 10851 10847 10843 10839 10835 10831 10827 10824 10820 10817 10814 10812 10809
10870 10875 10877 10881 10886 10889 10891 10894 10896 10897 10900 10900 10899 10898 10897 10897 10897 10897 10896 10895 10894 10892 10889 10885 10884 10882 10879 10876 10873 10870 10867 10863 10858 10853 10847 10842 10838 10834 10831 10828 10824 10820 10816 10812 10808 10804 10801 10799 10796
10861 10866 10869 10873 10876 10879 10883 10885 10886 10890 10892 10891 10890 10889 10888 10887 10888 10887 10885 10884 10883 10882 10879 10875 10871 10867 10865 10862 10858 10856 10852 10849 10845 10840 10836 10832 10827 10822 10818 10814 10810 10807 10803 10799 10796 10792 10789 10785 10782
10851 10855 10859 10863 10866 10869 10873 10874 10877 10882 10883 10882 10881 10880 10880 10879 10879 10877 10875 10873 10871 10869 10866 10864 10860 10857 10853 10849 10845 10841 10837 10832 10828 10824 10820 10815 10812 10808 10805 10802 10798 10794 10789 10784 10781 10778 10775 10771 10768
10840 10847 10851 10854 10856 10860 10863 10863 10868 10872 10874 10873 10871 10871 10871 10870 10870 10867 10864 10862 10861 10858 10855 10852 10848 10845 10841 10837 10832 10828 10823 10818 10813 10808 10803 10799 10795 10791 10787 10784 10780 10777 10773 10769 10765 10761 10758 10755 10753
10830 10836 10840 10841 10846 10851 10854 10851 10858 10862 10863 10862 10862 10862 10861 10861 10859 10857 10854 10852 10851 10847 10844 10840 10836 10833 10828 10823 10818 10814 10809 10804 10799 10794 10789 10784 10780 10776 10772 10768 10764 10760 10756 10751 10747 10743 10740 10738 10735
10821 10826 10828 10831 10839 10843 10845 10841 10846 10850 10852 10852 10852 10851 10850 10848 10848 10847 10843 10842 10840 10835 10831 10827 10823 10820 10814 10809 10804 10799 10795 10790 10785 10779 10774 10769 10764 10760 10756 10751 10746 10742 10738 10733 10728 10725 10722 10719 10718
10810 10816 10818 10821 10828 10833 10834 10832 10835 10840 10841 10841 10841 10840 10837 10836 10837 10833 10832 10829 10826 10822 10818 10814 10810 10805 10798 10794 10789 10784 10779 10775 10770 10764 10759 10754 10748 10744 10740 10734 10729 10724 10719 10714 10709 10705 10703 10701 10699
10798 10805 10809 10811 10815 10820 10822 10819 10824 10829 10829 10831 10831 10829 10825 10824 10823 10820 10819 10816 10813 10809 10804 10799 10793 10788 10782 10777 10772 10767 10764 10759 10754 10747 10742 10737 10732 10727 10720 10715 10709 10704 10698 10694 10690 10686 10683 10680 10679
10789 10795 10799 10802 10805 10810 10812 10810 10813 10817 10819 10817 10817 10816 10814 10811 10809 10808 10805 10802 10799 10795 10788 10783 10778 10772 10766 10761 10755 10750 10746 10741 10735 10729 10723 10717 10711 10705 10699 10693 10687 10682 10677 10672 10669 10667 10663 10660 10656
10778 10785 10789 10793 10795 10799 10801 10800 10801 10805 10806 10807 10805 10803 10800 10798 10795 10793 10790 10786 10783 10778 10773 10767 10761 10756 10749 10743 10737 10732 10727 10721 10716 10711 10704 10697 10690 10683 10677 10671 10665 10660 10656 10650 10646 10644 10643 10640 10633
10768 10774 10780 10784 10787 10790 10790 10793 10789 10793 10793 10793 10792 10791 10788 10784 10781 10778 10774 10771 10767 10762 10756 10750 10744 10738 10732 10724 10717 10711 10705 10700 10693 10687 10680 10674 10667 10660 10654 10648 10643 10637 10632 10627 10623 10619 10616 10614 10611
10759 10765 10770 10775 10779 10781 10779 10782 10778 10778 10780 10780 10778 10776 10773 10769 10766 10762 10758 10753 10748 10743 10738 10732 10725 10718 10710 10702 10696 10690 10682 10675 10668 10661 10654 10648 10642 10635 10629 10624 10618 10613 10607 10602 10598 10593 10587 10582 10580
10751 10756 10761 10765 10768 10771 10768 10768 10772 10769 10766 10765 10764 10762 10759 10755 10750 10745 10739 10734 10729 10722 10716 10709 10702 10695 10688 10680 10673 10666 10659 10651 10643 10636 10628 10621 10615 10608 10601 10597 10591 10585 10580 10574 10570 10565 10560 10553 10549
10742 10746 10751 10755 10756 10759 10757 10759 10758 10757 10754 10752 10751 10748 10745 10740 10734 10728 10721 10714 10708 10701 10693 10686 10679 10673 10666 10658 10650 10641 10633 10625 10617 10610 10603 10596 10589 10583 10576 10569 10563 10558 10553 10547 10541 10535 10528 10520 10516
10734 10737 10741 10745 10746 10747 10746 10748 10746 10742 10740 10739 10737 10734 10729 10724 10718 10710 10703 10695 10686 10679 10671 10663 10656 10649 10641 10633 10624 10616 10608 10600 10593 10586 10579 10573 10566 10559 10552 10545 10538 10530 10523 10515 10507 10502 10493 10485 10477
10724 10729 10732 10735 10736 10736 10735 10733 10734 10729 10727 10724 10721 10717 10711 10705 10698 10690 10681 10673 10665 10657 10649 10641 10633 10625 10616 10608 10600 10592 10585 10578 10570 10562 10554 10548 10541 10534 10527 10518 10511 10502 10492 10483 10475 10468 10458 10449 10439
10717 10720 10723 10725 10728 10725 10724 10721 10718 10715 10713 10709 10704 10697 10690 10683 10677 10669 10661 10653 10644 10636 10627 10618 10609 10601 10592 10584 10576 10568 10561 10554 10546 10537 10529 10522 10515 10507 10498 10489 10480 10470 10460 10450 10441 10433 10423 10413 10402
10709 10711 10714 10715 10715 10714 10711 10709 10703 10701 10697 10691 10684 10677 10671 10664 10656 10648 10640 10632 10623 10613 10604 10594 10586 10577 10568 10559 10550 10542 10534 10526 10519 10511 10502 10494 10486 10476 10466 10456 10446 10435 10424 10413 10404 10394 10385 10374 10364
10700 10702 10703 10703 10703 10700 10698 10695 10688 10684 10680 10673 10666 10659 10651 10643 10635 10627 10619 10610 10600 10590 10580 10571 10562 10553 10543 10533 10523 10515 10507 10499 10490 10481 10472 10463 10454 10443 10432 10422 10411 10400 10389 10378 10367 10357 10345 10335 10325